Location: Lanoux
(43.1180°N, 1.4255°E)
Time: 02:05:43
(UTC+00:00)

Meteor 2-10 - Pass Details

Date: 17 March 2026
Orbit: 736 x 866 km, 81.2° (Epoch: 13 April)

Event Time Altitude Azimuth Distance (km) Brightness Sun altitude
Rises 19:28:46 0° 216° (SW) 3,293 7.6 -16.3°
Reaches altitude 10° 19:31:25 10° 226° (SW) 2,346 6.9 -16.8°
Maximum altitude 19:36:04 31° 288° (WNW) 1,334 6.0 -17.6°
Drops below altitude 10° 19:40:37 10° 350° (N) 2,292 6.8 -18.4°
Sets 19:43:12 0° 1° (N) 3,206 7.4 -18.9°
